Flag for U.S.A. Weather past 2 weeks in Marengo, Indiana, U.S.A.

Now
60 °F

Sunny.


Feels Like: 60 °F
Forecast: 57 / 83 °F
Wind: No wind

Location: Bowling Green-Warren County Regional Airport

Current Time: Jul 25, 2014 at 8:24:57 AM

Latest Report: Jul 25, 2014 at 7:53 AM


Visibility: 9 mi

Pressure: 30.07 "Hg

Humidity: 86%

Dew point: 56 °F

Location of MarengoLocation

Historic Weather in Marengo — Graph

°F

Marengo temperature yesterday

Maximum temperature yesterday: 84 °F (at 2:53 PM)
Minimum temperature yesterday: 67 °F (at 11:53 PM)
Average temperature yesterday: 75 °F

Past Weeks' High & Low Weather Summary

 TemperatureHumidityPressure
High94 °F (Jul 13, 3:53 PM)97% (Jul 19, 7:53 AM)30.18 "Hg (Jul 19, 7:53 AM)
Low54 °F (Jul 25, 6:53 AM)34% (Jul 17, 2:53 PM)29.85 "Hg (Jul 14, 5:53 PM)
Average75 °F68%30.03 "Hg
* Reported Jul 10 6:53 AM — Jul 25 6:53 AM, Marengo, Weather by CustomWeather, © 2014

Note: Actual official high and low records may vary slightly from our data, if they occured in-between our weather recording intervals... More about our weather records

Advertising

Marengo weather history for previous 24 hours

 ConditionsComfort  
Time TempWeatherWind HumidityBarometerVisibility
6:53 AM
Jul 25
54 °FClear.No wind93%30.06 "Hg7 mi
5:53 AM56 °FClear.No wind90%30.05 "Hg9 mi
4:53 AM57 °FClear.No wind90%30.04 "Hg10 mi
3:53 AM59 °FClear.No wind87%30.03 "Hg10 mi
2:53 AM59 °FClear.No wind87%30.02 "Hg10 mi
1:53 AM61 °FClear.No wind81%30.03 "Hg10 mi
12:53 AM63 °FClear.No wind75%30.04 "Hg10 mi
11:53 PM
Jul 24
67 °FClear.No wind66%30.04 "Hg10 mi
10:53 PM68 °FClear.3 mph63%30.03 "Hg10 mi
9:53 PM69 °FSunny.7 mph59%30.02 "Hg10 mi
8:53 PM76 °FSunny.5 mph45%30.00 "Hg10 mi
7:53 PM79 °FSunny.10 mph41%29.98 "Hg10 mi
6:53 PM82 °FSunny.5 mph38%29.96 "Hg10 mi
5:53 PM80 °FSunny.8 mph42%29.98 "Hg10 mi
4:53 PM82 °FScattered clouds.8 mph41%29.99 "Hg10 mi
3:53 PM81 °FPartly sunny.9 mph45%29.99 "Hg10 mi
2:53 PM84 °FPassing clouds.7 mph43%29.98 "Hg10 mi
1:53 PM82 °FScattered clouds.8 mph46%29.99 "Hg10 mi
12:53 PM79 °FScattered clouds.5 mph58%30.01 "Hg10 mi
11:53 AM76 °FPartly sunny.3 mph72%30.02 "Hg10 mi
10:53 AM72 °FMore clouds than sun.9 mph76%30.02 "Hg10 mi
9:53 AM72 °FOvercast.6 mph78%30.01 "Hg10 mi
8:53 AM72 °FOvercast.7 mph78%30.00 "Hg10 mi
Weather by CustomWeather, © 2014

See weather overviewHow to use our weather pages